Weather History for KDUA - October, 2012

Change the Weather History Date:

Tuesday, October 9, 2012

  Actual Average (KADM) Record (KADM)
Temperature  
Mean Temperature 60 °F -  
Max Temperature 73 °F 75 °F 91 °F (2014)
Min Temperature 46 °F 54 °F 32 °F (2000)
Degree Days  
Heating Degree Days 6    
Growing Degree Days 10 (Base 50)    
Moisture  
Dew Point 52 °F    
Average Humidity 77    
Maximum Humidity 94    
Minimum Humidity 57    
Precipitation  
Precipitation 0.00 in - - ()
Sea Level Pressure  
Sea Level Pressure 29.98 in    
Wind  
Wind Speed 9 mph (SSE)    
Max Wind Speed 22 mph    
Max Gust Speed 30 mph    
Visibility 10 miles    
Events      
Averages and records for this station are not official NWS values.
T = Trace of Precipitation, MM = Missing Value Source: NWS Daily Summary

Daily Weather History Graph

Daily Weather History Graph

Search for Another Location

Airport or City:

Trip Planner

Search our weather history database for the weather conditions in past years. The results will help you decide how hot, cold, wet, or windy it might be!

Date:

Astronomy

Oct. 09, 2012 Rise Set
Actual Time 7:26 AM CDT 6:58 PM CDT
Civil Twilight 7:01 AM CDT 7:23 PM CDT
Nautical Twilight 6:32 AM CDT 7:52 PM CDT
Astronomical Twilight 6:03 AM CDT 8:21 PM CDT
Moon 1:20 AM CDT (10/9) 3:11 PM CDT (10/9)
Length of Visible Light 12h 22m
Length of Day
11h 32m
Last Quarter, 36% of the Moon is Illuminated
Oct 9
Last Quarter
Oct 15
New
Oct 21
First Quarter
Oct 29
Full
Nov 6
Last Quarter

Hourly Weather History & Observations

Time (CDT) Temp. Windchill Dew Point Humidity Pressure Visibility Wind Dir Wind Speed Gust Speed Precip Events Conditions
12:15 AM 46.4 °F 44.3 °F 42.8 °F 87% 30.09 in 10.0 mi SSE 4.6 mph - N/A   Clear
12:35 AM 46.4 °F 43.5 °F 42.8 °F 87% 30.08 in 10.0 mi SSE 5.8 mph - N/A   Clear
12:55 AM 46.4 °F 44.3 °F 42.8 °F 87% 30.09 in 10.0 mi SSE 4.6 mph - N/A   Clear
1:15 AM 46.4 °F 44.3 °F 42.8 °F 87% 30.08 in 10.0 mi SSE 4.6 mph - N/A   Clear
1:35 AM 46.4 °F 44.3 °F 42.8 °F 87% 30.08 in 10.0 mi SSE 4.6 mph - N/A   Clear
1:55 AM 48.2 °F - 42.8 °F 82% 30.07 in 10.0 mi SSE 8.1 mph - N/A   Clear
2:15 AM 48.2 °F - 44.6 °F 87% 30.07 in 10.0 mi SSE 6.9 mph - N/A   Clear
2:35 AM 50.0 °F - 42.8 °F 76% 30.06 in 10.0 mi SSE 8.1 mph - N/A   Clear
3:15 AM 46.4 °F 43.5 °F 42.8 °F 87% 30.06 in 10.0 mi SE 5.8 mph - N/A   Clear
3:35 AM 46.4 °F 43.5 °F 42.8 °F 87% 30.05 in 10.0 mi SSE 5.8 mph - N/A   Clear
3:55 AM 46.4 °F 43.5 °F 42.8 °F 87% 30.04 in 10.0 mi SE 5.8 mph - N/A   Clear
4:15 AM 46.4 °F 44.3 °F 42.8 °F 87% 30.04 in 10.0 mi SE 4.6 mph - N/A   Clear
4:35 AM 46.4 °F 44.3 °F 42.8 °F 87% 30.03 in 10.0 mi SE 4.6 mph - N/A   Clear
4:55 AM 46.4 °F 43.5 °F 44.6 °F 93% 30.03 in 10.0 mi SE 5.8 mph - N/A   Clear
5:15 AM 46.4 °F 44.3 °F 44.6 °F 93% 30.04 in 10.0 mi SE 4.6 mph - N/A   Mostly Cloudy
5:35 AM 48.2 °F - 44.6 °F 87% 30.04 in 10.0 mi SSE 6.9 mph - N/A   Overcast
5:55 AM 50.0 °F - 46.4 °F 87% 30.03 in 10.0 mi SSE 9.2 mph - N/A   Overcast
6:15 AM 50.0 °F - 46.4 °F 87% 30.03 in 10.0 mi SSE 10.4 mph - N/A   Overcast
6:35 AM 51.8 °F - 46.4 °F 82% 30.03 in 10.0 mi SSE 11.5 mph - N/A   Overcast
7:15 AM 51.8 °F - 48.2 °F 88% 30.02 in 10.0 mi SSE 13.8 mph - N/A   Overcast
7:35 AM 51.8 °F - 48.2 °F 88% 30.03 in 10.0 mi South 12.7 mph - N/A   Overcast
7:55 AM 53.6 °F - 48.2 °F 82% 30.03 in 10.0 mi South 12.7 mph - N/A   Overcast
8:15 AM 53.6 °F - 48.2 °F 82% 30.03 in 10.0 mi South 13.8 mph 18.4 mph N/A   Overcast
8:35 AM 53.6 °F - 48.2 °F 82% 30.02 in 10.0 mi South 13.8 mph - N/A   Overcast
9:15 AM 55.4 °F - 50.0 °F 82% 30.02 in 10.0 mi South 15.0 mph 19.6 mph N/A   Overcast
9:35 AM 55.4 °F - 50.0 °F 82% 30.02 in 10.0 mi South 15.0 mph - N/A   Overcast
9:55 AM 55.4 °F - 50.0 °F 82% 30.03 in 10.0 mi South 13.8 mph - N/A   Overcast
10:15 AM 59.0 °F - 51.8 °F 77% 30.03 in 10.0 mi South 13.8 mph - N/A   Overcast
10:35 AM 59.0 °F - 51.8 °F 77% 30.02 in 10.0 mi South 12.7 mph - N/A   Overcast
10:55 AM 60.8 °F - 51.8 °F 72% 30.02 in 10.0 mi South 12.7 mph - N/A   Overcast
11:15 AM 62.6 °F - 51.8 °F 68% 30.01 in 10.0 mi South 16.1 mph - N/A   Overcast
11:35 AM 64.4 °F - 53.6 °F 68% 30.00 in 10.0 mi South 17.3 mph 21.9 mph N/A   Overcast
11:55 AM 64.4 °F - 53.6 °F 68% 29.98 in 10.0 mi South 16.1 mph - N/A   Overcast
12:15 PM 68.0 °F - 53.6 °F 60% 29.97 in 10.0 mi South 18.4 mph - N/A   Mostly Cloudy
12:35 PM 69.8 °F - 55.4 °F 60% 29.95 in 10.0 mi SSW 18.4 mph 27.6 mph N/A   Mostly Cloudy
12:55 PM 69.8 °F - 55.4 °F 60% 29.94 in 10.0 mi South 16.1 mph - N/A   Mostly Cloudy
1:15 PM 69.8 °F - 55.4 °F 60% 29.93 in 10.0 mi SSW 17.3 mph 28.8 mph N/A   Overcast
1:35 PM 71.6 °F - 55.4 °F 57% 29.93 in 10.0 mi SSW 20.7 mph 25.3 mph N/A   Overcast
1:55 PM 69.8 °F - 55.4 °F 60% 29.92 in 10.0 mi South 18.4 mph 25.3 mph N/A   Overcast
2:15 PM 71.6 °F - 55.4 °F 57% 29.91 in 10.0 mi SSW 19.6 mph 24.2 mph N/A   Overcast
2:35 PM 71.6 °F - 55.4 °F 57% 29.89 in 10.0 mi South 21.9 mph 25.3 mph N/A   Mostly Cloudy
2:55 PM 71.6 °F - 55.4 °F 57% 29.89 in 10.0 mi South 16.1 mph 25.3 mph N/A   Overcast
3:15 PM 71.6 °F - 55.4 °F 57% 29.89 in 10.0 mi South 16.1 mph 29.9 mph N/A   Mostly Cloudy
3:35 PM 73.4 °F - 57.2 °F 57% 29.89 in 10.0 mi SSW 17.3 mph 21.9 mph N/A   Mostly Cloudy
3:55 PM 71.6 °F - 55.4 °F 57% 29.89 in 10.0 mi South 12.7 mph - N/A   Scattered Clouds
4:15 PM 71.6 °F - 57.2 °F 60% 29.89 in 10.0 mi South 15.0 mph 19.6 mph N/A   Mostly Cloudy
4:35 PM 73.4 °F - 59.0 °F 61% 29.88 in 10.0 mi South 15.0 mph 18.4 mph N/A   Scattered Clouds
5:15 PM 73.4 °F - 59.0 °F 61% 29.87 in 10.0 mi South 9.2 mph - N/A   Clear
5:35 PM 73.4 °F - 59.0 °F 61% 29.88 in 10.0 mi South 10.4 mph 17.3 mph N/A   Clear
5:55 PM 73.4 °F - 59.0 °F 61% 29.88 in 10.0 mi South 9.2 mph - N/A   Clear
6:15 PM 73.4 °F - 59.0 °F 61% 29.89 in 10.0 mi SSE 6.9 mph - N/A   Clear
6:35 PM 73.4 °F - 60.8 °F 65% 29.89 in 10.0 mi ESE 5.8 mph - N/A   Clear
6:55 PM 69.8 °F - 60.8 °F 73% 29.90 in 10.0 mi ESE 5.8 mph - N/A   Clear
7:15 PM 68.0 °F - 59.0 °F 73% 29.91 in 10.0 mi East 5.8 mph - N/A   Clear
7:35 PM 64.4 °F - 59.0 °F 83% 29.92 in 10.0 mi ESE 4.6 mph - N/A   Clear
7:55 PM 64.4 °F - 59.0 °F 83% 29.93 in 10.0 mi East 4.6 mph - N/A   Mostly Cloudy
8:15 PM 64.4 °F - 60.8 °F 88% 29.94 in 10.0 mi ESE 3.5 mph - N/A   Mostly Cloudy
8:35 PM 64.4 °F - 59.0 °F 83% 29.94 in 10.0 mi East 4.6 mph - N/A   Scattered Clouds
8:55 PM 62.6 °F - 59.0 °F 88% 29.96 in 10.0 mi East 5.8 mph - N/A   Clear
9:15 PM 62.6 °F - 59.0 °F 88% 29.96 in 10.0 mi East 5.8 mph - N/A   Clear
9:35 PM 62.6 °F - 59.0 °F 88% 29.98 in 10.0 mi ENE 5.8 mph - N/A   Scattered Clouds
9:55 PM 62.6 °F - 59.0 °F 88% 29.98 in 10.0 mi East 5.8 mph - N/A   Scattered Clouds
10:15 PM 62.6 °F - 59.0 °F 88% 30.00 in 10.0 mi East 5.8 mph - N/A   Clear
10:35 PM 62.6 °F - 59.0 °F 88% 30.00 in 10.0 mi East 5.8 mph - N/A   Clear
10:55 PM 62.6 °F - 59.0 °F 88% 30.00 in 10.0 mi East 5.8 mph - N/A   Clear
11:15 PM 62.6 °F - 59.0 °F 88% 30.01 in 10.0 mi ENE 6.9 mph - N/A   Clear
11:35 PM 60.8 °F - 59.0 °F 94% 30.02 in 10.0 mi ENE 4.6 mph - N/A   Scattered Clouds
11:55 PM 60.8 °F - 59.0 °F 94% 30.02 in 10.0 mi NE 4.6 mph - N/A   Clear